Weather History for Lincoln, NE

Change the Weather History Date:

Wednesday, July 17, 2013

  Actual Average Record
Temperature  
Mean Temperature 81 °F 78 °F  
Max Temperature 93 °F 89 °F 112 °F (1936)
Min Temperature 68 °F 66 °F 49 °F (2009)
Degree Days  
Heating Degree Days 0 0  
Month to date heating degree days 0 0  
Since 1 June heating degree days 20 16  
Since 1 July heating degree days 0 0  
Cooling Degree Days 16 13  
Month to date cooling degree days 220 214  
Year to date cooling degree days 538 535  
Since 1 June cooling degree days 451 456  
Growing Degree Days 30 (Base 50)    
Moisture  
Dew Point 65 °F    
Average Humidity 66    
Maximum Humidity 90    
Minimum Humidity 41    
Precipitation  
Precipitation 0.00 in 0.11 in 1.55 in (1918)
Month to date precipitation T 1.96  
Year to date precipitation 18.34 16.65  
Snow  
Snow 0.00 in 0.00 in - ()
Month to date snowfall 0.0 0.0  
Since 1 July snowfall 0.0 0.0  
Snow Depth 0.00 in    
Sea Level Pressure  
Sea Level Pressure 30.23 in    
Wind  
Wind Speed 6 mph (SSW)    
Max Wind Speed 16 mph    
Max Gust Speed 21 mph    
Visibility 10 miles    
Events      
T = Trace of Precipitation, MM = Missing Value Source: NWS Daily Summary

Daily Weather History Graph

Daily Weather History Graph

Search for Another Location

Airport:

Trip Planner

Search our weather history database for the weather conditions in past years. The results will help you decide how hot, cold, wet, or windy it might be!

Date:

Astronomy

Jul. 17, 2013 Rise Set
Actual Time 6:10 AM CDT 8:55 PM CDT
Civil Twilight 5:37 AM CDT 9:28 PM CDT
Nautical Twilight 4:57 AM CDT 10:08 PM CDT
Astronomical Twilight 4:11 AM CDT 10:54 PM CDT
Moon 3:45 PM CDT (7/17) 1:18 AM CDT (7/17)
Length of Visible Light 15h 50m
Length of Day
14h 45m
Waxing Gibbous, 67% of the Moon is Illuminated
Jul 17
Waxing Gibbous
Jul 22
Full
Jul 29
Last Quarter
Aug 6
New
Aug 14
First Quarter

Hourly Weather History & Observations

Time (CDT) Temp. Heat Index Dew Point Humidity Pressure Visibility Wind Dir Wind Speed Gust Speed Precip Events Conditions
12:54 AM 73.9 °F - 66.0 °F 76% 30.25 in 10.0 mi South 5.8 mph - N/A   Clear
1:54 AM 73.0 °F - 66.0 °F 79% 30.25 in 10.0 mi South 3.5 mph - N/A   Clear
2:54 AM 73.9 °F - 66.0 °F 76% 30.24 in 10.0 mi Calm Calm - N/A   Clear
3:54 AM 73.0 °F - 66.0 °F 79% 30.24 in 10.0 mi Calm Calm - N/A   Clear
4:54 AM 69.1 °F - 64.9 °F 87% 30.25 in 9.0 mi South 3.5 mph - N/A   Clear
5:54 AM 70.0 °F - 66.0 °F 87% 30.25 in 10.0 mi Calm Calm - N/A   Clear
6:54 AM 70.0 °F - 64.9 °F 84% 30.27 in 8.0 mi Calm Calm - N/A   Clear
7:54 AM 73.0 °F - 66.0 °F 79% 30.29 in 10.0 mi SSW 3.5 mph - N/A   Clear
8:54 AM 79.0 °F - 64.9 °F 62% 30.29 in 10.0 mi Calm Calm - N/A   Clear
9:54 AM 82.0 °F 83.8 °F 64.9 °F 56% 30.30 in 10.0 mi Variable 3.5 mph - N/A   Clear
10:54 AM 84.9 °F 86.1 °F 64.0 °F 49% 30.29 in 10.0 mi Variable 3.5 mph - N/A   Clear
11:54 AM 88.0 °F 89.6 °F 64.9 °F 46% 30.28 in 10.0 mi SSW 9.2 mph - N/A   Clear
12:54 PM 90.0 °F 91.3 °F 64.0 °F 42% 30.27 in 10.0 mi SSW 9.2 mph - N/A   Partly Cloudy
1:54 PM 90.0 °F 90.6 °F 63.0 °F 40% 30.25 in 10.0 mi SW 5.8 mph 16.1 mph N/A   Scattered Clouds
2:54 PM 91.9 °F 93.3 °F 64.0 °F 39% 30.22 in 10.0 mi South 11.5 mph 16.1 mph N/A   Clear
3:54 PM 90.0 °F 91.3 °F 64.0 °F 42% 30.21 in 10.0 mi SSW 8.1 mph - N/A   Partly Cloudy
4:54 PM 91.9 °F 93.3 °F 64.0 °F 39% 30.19 in 10.0 mi SSW 8.1 mph - N/A   Mostly Cloudy
5:54 PM 91.9 °F 93.3 °F 64.0 °F 39% 30.17 in 10.0 mi SSW 10.4 mph - N/A   Clear
6:54 PM 91.0 °F 93.0 °F 64.9 °F 42% 30.16 in 10.0 mi SSW 9.2 mph - N/A   Clear
7:54 PM 88.0 °F 89.6 °F 64.9 °F 46% 30.15 in 10.0 mi South 11.5 mph - N/A   Clear
8:54 PM 82.0 °F 84.1 °F 66.0 °F 58% 30.15 in 10.0 mi South 6.9 mph - N/A   Clear
9:54 PM 79.0 °F - 66.0 °F 64% 30.15 in 10.0 mi South 8.1 mph - N/A   Clear
10:54 PM 78.1 °F - 66.0 °F 66% 30.15 in 10.0 mi South 6.9 mph - N/A   Clear
11:54 PM 75.0 °F - 66.0 °F 73% 30.15 in 10.0 mi South 4.6 mph - N/A   Clear